QPF
0.04 0.03 0.03 0.03 0.03 0.03 0.02 0.02 0.01 0.01 0.01 0.01 0.01 0.01 0.00 0.00 0.01 0.01 0.01 0.01 0.01 0.01 0.02 0.01 0.02 0.02 0.02 0.03 0.03 0.03 0.03 0.03 0.02 0.01 0.01 0.01 0.02 0.02 0.02 0.01 0.01 0.01 0.02
0.04 0.04 0.03 0.03 0.04 0.04 0.03 0.03 0.02 0.02 0.01 0.02 0.02 0.01 0.01 0.00 0.00 0.01 0.01 0.01 0.01 0.01 0.01 0.01 0.02 0.03 0.03 0.04 0.04 0.04 0.04 0.04 0.04 0.02 0.01 0.01 0.01 0.02 0.02 0.02 0.01 0.01 0.01
0.04 0.05 0.04 0.03 0.03 0.04 0.05 0.04 0.04 0.04 0.04 0.03 0.03 0.03 0.02 0.01 0.01 0.01 0.01 0.01 0.02 0.01 0.01 0.01 0.02 0.03 0.04 0.03 0.04 0.04 0.04 0.05 0.05 0.05 0.03 0.02 0.01 0.02 0.03 0.03 0.02 0.02 0.01
0.03 0.05 0.05 0.03 0.03 0.03 0.05 0.07 0.07 0.07 0.06 0.07 0.08 0.06 0.05 0.03 0.02 0.01 0.01 0.02 0.02 0.02 0.01 0.02 0.02 0.03 0.03 0.03 0.04 0.04 0.04 0.05 0.06 0.06 0.05 0.04 0.03 0.02 0.03 0.04 0.04 0.03 0.02
0.02 0.03 0.04 0.04 0.04 0.03 0.03 0.04 0.06 0.06 0.06 0.06 0.07 0.08 0.08 0.06 0.04 0.03 0.02 0.02 0.02 0.02 0.02 0.02 0.01 0.02 0.03 0.04 0.04 0.04 0.04 0.04 0.05 0.06 0.06 0.05 0.04 0.03 0.03 0.03 0.04 0.04 0.03
0.01 0.03 0.04 0.05 0.06 0.05 0.04 0.03 0.03 0.03 0.05 0.08 0.07 0.07 0.07 0.07 0.06 0.05 0.05 0.04 0.03 0.02 0.02 0.02 0.02 0.01 0.01 0.03 0.04 0.03 0.03 0.04 0.05 0.06 0.06 0.06 0.06 0.05 0.05 0.04 0.04 0.05 0.04
0.06 0.06 0.06 0.07 0.07 0.06 0.04 0.03 0.02 0.03 0.02 0.04 0.06 0.06 0.06 0.06 0.05 0.05 0.05 0.06 0.04 0.03 0.02 0.02 0.02 0.01 0.00 0.01 0.03 0.04 0.04 0.04 0.05 0.05 0.06 0.06 0.06 0.06 0.06 0.05 0.05 0.05 0.05
0.11 0.14 0.13 0.10 0.10 0.09 0.07 0.04 0.02 0.02 0.02 0.02 0.03 0.03 0.04 0.05 0.05 0.04 0.04 0.05 0.05 0.04 0.03 0.02 0.02 0.02 0.01 0.01 0.01 0.02 0.04 0.04 0.05 0.06 0.06 0.07 0.07 0.07 0.07 0.06 0.07 0.08 0.08
0.05 0.08 0.13 0.13 0.12 0.12 0.11 0.08 0.03 0.02 0.01 0.02 0.02 0.03 0.03 0.04 0.04 0.03 0.03 0.03 0.03 0.03 0.03 0.03 0.02 0.02 0.02 0.02 0.01 0.02 0.02 0.04 0.05 0.06 0.06 0.06 0.08 0.08 0.08 0.08 0.07 0.08 0.09
0.06 0.05 0.06 0.09 0.10 0.10 0.12 0.10 0.05 0.02 0.01 0.01 0.01 0.02 0.02 0.02 0.02 0.03 0.03 0.02 0.02 0.02 0.02 0.02 0.03 0.02 0.02 0.02 0.02 0.02 0.02 0.02 0.03 0.05 0.06 0.05 0.06 0.08 0.09 0.09 0.09 0.08 0.08
0.08 0.07 0.06 0.08 0.08 0.07 0.08 0.10 0.07 0.03 0.02 0.01 0.01 0.01 0.01 0.01 0.01 0.02 0.02 0.02 0.02 0.02 0.02 0.02 0.02 0.03 0.02 0.02 0.02 0.01 0.02 0.02 0.02 0.04 0.06 0.05 0.05 0.07 0.08 0.09 0.09 0.08 0.07
0.04 0.08 0.09 0.09 0.09 0.08 0.07 0.07 0.06 0.04 0.02 0.02 0.02 0.01 0.01 0.01 0.01 0.01 0.01 0.01 0.01 0.02 0.02 0.03 0.03 0.03 0.03 0.03 0.02 0.02 0.02 0.02 0.02 0.03 0.04 0.06 0.06 0.06 0.07 0.08 0.08 0.08 0.08
0.05 0.05 0.07 0.11 0.10 0.09 0.07 0.05 0.05 0.03 0.02 0.02 0.02 0.02 0.01 0.01 0.01 0.02 0.02 0.02 0.01 0.01 0.02 0.02 0.03 0.03 0.03 0.03 0.03 0.04 0.03 0.03 0.03 0.03 0.04 0.05 0.06 0.05 0.06 0.06 0.07 0.08 0.09
0.03 0.05 0.07 0.07 0.10 0.11 0.09 0.06 0.05 0.03 0.02 0.02 0.01 0.01 0.01 0.01 0.01 0.01 0.02 0.03 0.03 0.02 0.02 0.03 0.03 0.04 0.04 0.05 0.05 0.04 0.03 0.04 0.04 0.05 0.05 0.05 0.05 0.05 0.05 0.05 0.07 0.07 0.07
0.01 0.02 0.04 0.06 0.07 0.09 0.11 0.09 0.06 0.04 0.02 0.02 0.01 0.01 0.01 0.01 0.01 0.01 0.01 0.02 0.03 0.03 0.02 0.01 0.02 0.02 0.03 0.05 0.08 0.06 0.04 0.04 0.05 0.06 0.06 0.06 0.06 0.06 0.05 0.05 0.07 0.07 0.08
0.01 0.01 0.02 0.03 0.05 0.07 0.11 0.10 0.07 0.04 0.02 0.01 0.01 0.01 0.01 0.01 0.01 0.01 0.01 0.02 0.02 0.03 0.03 0.02 0.01 0.02 0.03 0.04 0.06 0.08 0.07 0.07 0.06 0.05 0.05 0.06 0.06 0.06 0.05 0.05 0.06 0.07 0.07
0.01 0.01 0.01 0.02 0.03 0.04 0.06 0.11 0.10 0.05 0.03 0.02 0.01 0.01 0.01 0.01 0.01 0.01 0.02 0.03 0.03 0.04 0.04 0.02 0.02 0.02 0.03 0.03 0.03 0.04 0.07 0.07 0.06 0.05 0.05 0.05 0.05 0.05 0.04 0.04 0.05 0.07 0.07
0.01 0.01 0.01 0.01 0.03 0.03 0.03 0.05 0.06 0.05 0.04 0.03 0.02 0.01 0.01 0.01 0.01 0.01 0.02 0.02 0.03 0.03 0.04 0.04 0.03 0.03 0.03 0.03 0.03 0.03 0.04 0.06 0.07 0.07 0.05 0.04 0.04 0.05 0.05 0.05 0.05 0.06 0.07
0.01 0.00 0.00 0.01 0.02 0.03 0.02 0.02 0.04 0.05 0.04 0.03 0.03 0.02 0.02 0.01 0.02 0.02 0.02 0.02 0.03 0.03 0.04 0.04 0.03 0.03 0.03 0.03 0.03 0.04 0.04 0.05 0.07 0.08 0.08 0.07 0.06 0.05 0.05 0.05 0.05 0.05 0.06
0.01 0.00 0.00 0.00 0.01 0.04 0.03 0.03 0.03 0.03 0.04 0.04 0.04 0.04 0.04 0.04 0.04 0.03 0.03 0.03 0.03 0.04 0.05 0.05 0.04 0.04 0.04 0.04 0.04 0.05 0.05 0.05 0.06 0.08 0.09 0.10 0.11 0.09 0.07 0.06 0.05 0.04 0.05
0.00 0.01 0.01 0.01 0.01 0.04 0.04 0.03 0.06 0.07 0.05 0.04 0.04 0.04 0.04 0.04 0.04 0.04 0.04 0.04 0.05 0.05 0.06 0.06 0.05 0.05 0.05 0.06 0.05 0.04 0.04 0.05 0.05 0.06 0.07 0.08 0.09 0.09 0.08 0.06 0.05 0.05 0.05
0.01 0.01 0.01 0.01 0.02 0.03 0.05 0.05 0.05 0.05 0.07 0.08 0.08 0.06 0.04 0.04 0.04 0.04 0.04 0.04 0.05 0.05 0.05 0.05 0.04 0.04 0.03 0.04 0.04 0.03 0.03 0.04 0.05 0.05 0.04 0.06 0.06 0.06 0.06 0.05 0.05 0.04 0.04
0.01 0.01 0.01 0.02 0.02 0.02 0.03 0.04 0.04 0.03 0.03 0.04 0.06 0.08 0.08 0.06 0.04 0.03 0.03 0.04 0.03 0.03 0.03 0.04 0.04 0.03 0.03 0.03 0.04 0.05 0.05 0.05 0.06 0.06 0.05 0.06 0.05 0.04 0.04 0.05 0.05 0.04 0.04
0.01 0.01 0.01 0.01 0.01 0.02 0.02 0.02 0.02 0.02 0.01 0.02 0.02 0.03 0.04 0.05 0.06 0.04 0.04 0.03 0.02 0.02 0.02 0.02 0.03 0.03 0.04 0.04 0.05 0.07 0.07 0.08 0.08 0.08 0.07 0.06 0.05 0.05 0.04 0.04 0.06 0.06 0.05
0.01 0.01 0.01 0.01 0.01 0.01 0.01 0.01 0.01 0.01 0.00 0.01 0.01 0.01 0.01 0.01 0.03 0.04 0.05 0.05 0.04 0.03 0.02 0.03 0.03 0.04 0.05 0.06 0.07 0.10 0.11 0.11 0.09 0.07 0.07 0.06 0.06 0.06 0.05 0.04 0.05 0.06 0.06
0.01 0.01 0.01 0.01 0.01 0.00 0.01 0.01 0.01 0.01 0.01 0.01 0.01 0.01 0.01 0.02 0.03 0.04 0.04 0.04 0.05 0.05 0.04 0.03 0.04 0.05 0.05 0.06 0.08 0.09 0.11 0.13 0.11 0.09 0.06 0.06 0.07 0.07 0.07 0.06 0.05 0.05 0.06
MSLP
1015.20 1015.58 1015.93 1016.27 1016.62 1017.01 1017.44 1017.89 1018.35 1018.78 1019.14 1019.43 1019.64 1019.79 1019.90 1020.01 1020.13 1020.30 1020.50 1020.73 1020.98 1021.21 1021.42 1021.61 1021.76 1021.90 1022.02 1022.13 1022.24 1022.32 1022.38 1022.40 1022.38 1022.31 1022.22 1022.10 1021.97 1021.85 1021.73 1021.61 1021.49 1021.34 1021.17
1014.78 1015.13 1015.46 1015.81 1016.20 1016.64 1017.12 1017.64 1018.15 1018.63 1019.04 1019.36 1019.60 1019.77 1019.89 1020.01 1020.15 1020.32 1020.54 1020.79 1021.04 1021.29 1021.52 1021.72 1021.89 1022.04 1022.17 1022.28 1022.39 1022.48 1022.55 1022.59 1022.60 1022.58 1022.53 1022.46 1022.37 1022.28 1022.19 1022.07 1021.95 1021.79 1021.62
1014.27 1014.58 1014.91 1015.28 1015.71 1016.21 1016.76 1017.35 1017.92 1018.45 1018.91 1019.27 1019.54 1019.74 1019.89 1020.02 1020.17 1020.35 1020.57 1020.81 1021.07 1021.33 1021.57 1021.77 1021.95 1022.11 1022.24 1022.37 1022.48 1022.59 1022.68 1022.75 1022.79 1022.82 1022.81 1022.79 1022.74 1022.68 1022.60 1022.50 1022.37 1022.21 1022.04
1013.67 1013.94 1014.26 1014.66 1015.15 1015.71 1016.33 1016.99 1017.63 1018.21 1018.72 1019.12 1019.43 1019.66 1019.83 1019.99 1020.15 1020.34 1020.56 1020.80 1021.06 1021.31 1021.55 1021.76 1021.95 1022.12 1022.27 1022.42 1022.55 1022.68 1022.79 1022.90 1022.98 1023.04 1023.08 1023.09 1023.08 1023.04 1022.98 1022.88 1022.75 1022.60 1022.42
1012.94 1013.18 1013.52 1013.95 1014.49 1015.12 1015.81 1016.52 1017.21 1017.85 1018.40 1018.85 1019.20 1019.47 1019.69 1019.88 1020.06 1020.27 1020.49 1020.73 1020.99 1021.24 1021.48 1021.70 1021.91 1022.09 1022.27 1022.44 1022.61 1022.76 1022.91 1023.04 1023.16 1023.25 1023.32 1023.37 1023.39 1023.37 1023.32 1023.23 1023.11 1022.95 1022.77
1012.10 1012.32 1012.66 1013.13 1013.72 1014.40 1015.14 1015.90 1016.63 1017.31 1017.90 1018.40 1018.80 1019.13 1019.40 1019.64 1019.87 1020.10 1020.34 1020.59 1020.85 1021.11 1021.36 1021.60 1021.83 1022.04 1022.26 1022.46 1022.66 1022.85 1023.02 1023.18 1023.32 1023.45 1023.54 1023.61 1023.65 1023.66 1023.63 1023.55 1023.43 1023.28 1023.10
1011.17 1011.36 1011.71 1012.20 1012.82 1013.53 1014.30 1015.09 1015.85 1016.56 1017.19 1017.73 1018.20 1018.59 1018.94 1019.25 1019.54 1019.82 1020.10 1020.38 1020.65 1020.92 1021.19 1021.46 1021.72 1021.97 1022.22 1022.46 1022.69 1022.91 1023.11 1023.29 1023.46 1023.60 1023.71 1023.81 1023.87 1023.91 1023.90 1023.84 1023.73 1023.59 1023.41
1010.18 1010.34 1010.67 1011.17 1011.79 1012.51 1013.29 1014.08 1014.86 1015.59 1016.25 1016.85 1017.39 1017.87 1018.31 1018.70 1019.08 1019.42 1019.75 1020.07 1020.38 1020.67 1020.97 1021.26 1021.56 1021.85 1022.14 1022.42 1022.69 1022.93 1023.15 1023.35 1023.52 1023.67 1023.81 1023.93 1024.03 1024.10 1024.12 1024.10 1024.02 1023.90 1023.73
1009.23 1009.33 1009.63 1010.09 1010.69 1011.38 1012.14 1012.91 1013.68 1014.43 1015.13 1015.78 1016.40 1016.98 1017.52 1018.02 1018.48 1018.91 1019.31 1019.67 1020.01 1020.34 1020.67 1021.00 1021.33 1021.66 1021.99 1022.30 1022.59 1022.86 1023.09 1023.30 1023.48 1023.66 1023.82 1023.97 1024.11 1024.22 1024.30 1024.33 1024.29 1024.20 1024.06
1008.39 1008.42 1008.64 1009.03 1009.57 1010.21 1010.91 1011.64 1012.39 1013.13 1013.86 1014.58 1015.28 1015.96 1016.61 1017.22 1017.78 1018.29 1018.75 1019.17 1019.55 1019.91 1020.27 1020.63 1020.99 1021.36 1021.73 1022.07 1022.39 1022.67 1022.91 1023.13 1023.33 1023.52 1023.71 1023.91 1024.10 1024.28 1024.42 1024.52 1024.54 1024.50 1024.40
1007.76 1007.68 1007.79 1008.09 1008.52 1009.06 1009.68 1010.35 1011.05 1011.79 1012.54 1013.31 1014.09 1014.87 1015.62 1016.33 1016.99 1017.57 1018.09 1018.55 1018.97 1019.37 1019.75 1020.15 1020.55 1020.95 1021.35 1021.72 1022.06 1022.36 1022.62 1022.85 1023.07 1023.28 1023.51 1023.76 1024.02 1024.27 1024.49 1024.66 1024.76 1024.78 1024.72
1007.38 1007.17 1007.15 1007.31 1007.61 1008.03 1008.53 1009.11 1009.75 1010.46 1011.22 1012.03 1012.87 1013.73 1014.58 1015.38 1016.11 1016.77 1017.34 1017.84 1018.29 1018.71 1019.13 1019.55 1019.99 1020.43 1020.86 1021.27 1021.63 1021.95 1022.23 1022.48 1022.72 1022.97 1023.24 1023.54 1023.86 1024.19 1024.49 1024.74 1024.92 1025.00 1025.00
1007.26 1006.91 1006.75 1006.75 1006.89 1007.15 1007.51 1007.98 1008.54 1009.20 1009.95 1010.78 1011.67 1012.59 1013.50 1014.37 1015.17 1015.88 1016.49 1017.03 1017.51 1017.96 1018.41 1018.87 1019.35 1019.83 1020.30 1020.75 1021.15 1021.50 1021.80 1022.07 1022.34 1022.62 1022.93 1023.28 1023.66 1024.05 1024.43 1024.75 1025.00 1025.15 1025.20
1007.38 1006.90 1006.57 1006.40 1006.37 1006.46 1006.68 1007.01 1007.47 1008.06 1008.77 1009.60 1010.50 1011.46 1012.41 1013.33 1014.17 1014.92 1015.57 1016.14 1016.66 1017.15 1017.64 1018.14 1018.67 1019.20 1019.73 1020.22 1020.66 1021.05 1021.38 1021.68 1021.97 1022.27 1022.61 1023.00 1023.42 1023.87 1024.30 1024.68 1024.98 1025.19 1025.28
1007.68 1007.07 1006.59 1006.26 1006.05 1005.97 1006.02 1006.22 1006.56 1007.06 1007.71 1008.50 1009.39 1010.34 1011.31 1012.25 1013.12 1013.89 1014.58 1015.19 1015.75 1016.29 1016.84 1017.40 1017.99 1018.59 1019.18 1019.73 1020.22 1020.65 1021.02 1021.34 1021.65 1021.97 1022.32 1022.72 1023.16 1023.63 1024.09 1024.51 1024.85 1025.10 1025.24
1008.08 1007.36 1006.76 1006.28 1005.91 1005.67 1005.56 1005.61 1005.82 1006.20 1006.77 1007.49 1008.33 1009.26 1010.21 1011.14 1012.02 1012.82 1013.55 1014.20 1014.82 1015.42 1016.04 1016.68 1017.35 1018.02 1018.68 1019.29 1019.84 1020.31 1020.71 1021.06 1021.37 1021.70 1022.04 1022.44 1022.88 1023.34 1023.81 1024.24 1024.61 1024.88 1025.06
1008.50 1007.71 1007.02 1006.42 1005.92 1005.53 1005.28 1005.18 1005.25 1005.51 1005.97 1006.59 1007.35 1008.21 1009.12 1010.03 1010.90 1011.71 1012.47 1013.17 1013.85 1014.53 1015.23 1015.96 1016.71 1017.47 1018.20 1018.88 1019.49 1020.00 1020.44 1020.80 1021.12 1021.43 1021.76 1022.13 1022.54 1022.99 1023.43 1023.86 1024.24 1024.54 1024.76
1008.88 1008.07 1007.31 1006.63 1006.04 1005.54 1005.16 1004.92 1004.86 1004.98 1005.30 1005.80 1006.45 1007.21 1008.05 1008.91 1009.76 1010.58 1011.36 1012.11 1012.86 1013.61 1014.39 1015.21 1016.04 1016.88 1017.68 1018.43 1019.09 1019.65 1020.12 1020.50 1020.82 1021.12 1021.43 1021.76 1022.14 1022.54 1022.96 1023.38 1023.76 1024.08 1024.34
1009.19 1008.38 1007.62 1006.90 1006.24 1005.66 1005.18 1004.82 1004.62 1004.60 1004.77 1005.12 1005.64 1006.29 1007.03 1007.81 1008.62 1009.43 1010.22 1011.01 1011.81 1012.63 1013.48 1014.37 1015.28 1016.18 1017.05 1017.86 1018.57 1019.18 1019.67 1020.07 1020.40 1020.70 1020.99 1021.29 1021.63 1022.00 1022.39 1022.79 1023.18 1023.52 1023.83
1009.42 1008.66 1007.91 1007.19 1006.51 1005.87 1005.31 1004.85 1004.53 1004.36 1004.38 1004.57 1004.94 1005.44 1006.06 1006.75 1007.50 1008.27 1009.05 1009.86 1010.69 1011.55 1012.46 1013.39 1014.35 1015.31 1016.23 1017.08 1017.83 1018.48 1019.02 1019.45 1019.80 1020.11 1020.39 1020.69 1021.00 1021.35 1021.72 1022.11 1022.50 1022.87 1023.22
1009.58 1008.87 1008.17 1007.48 1006.80 1006.14 1005.52 1004.98 1004.54 1004.24 1004.11 1004.14 1004.34 1004.69 1005.17 1005.75 1006.40 1007.11 1007.87 1008.66 1009.49 1010.37 1011.29 1012.25 1013.23 1014.21 1015.16 1016.04 1016.84 1017.53 1018.11 1018.59 1018.98 1019.32 1019.63 1019.93 1020.25 1020.58 1020.95 1021.33 1021.73 1022.13 1022.52
1009.66 1009.03 1008.39 1007.74 1007.08 1006.42 1005.77 1005.16 1004.63 1004.21 1003.93 1003.81 1003.85 1004.04 1004.38 1004.83 1005.38 1006.00 1006.69 1007.44 1008.24 1009.10 1010.00 1010.95 1011.92 1012.90 1013.85 1014.75 1015.57 1016.31 1016.94 1017.49 1017.94 1018.34 1018.70 1019.03 1019.37 1019.72 1020.09 1020.48 1020.89 1021.31 1021.73
1009.67 1009.11 1008.53 1007.94 1007.31 1006.65 1005.99 1005.34 1004.74 1004.23 1003.83 1003.57 1003.46 1003.51 1003.70 1004.02 1004.45 1004.98 1005.58 1006.25 1006.99 1007.79 1008.64 1009.53 1010.47 1011.41 1012.35 1013.25 1014.10 1014.87 1015.57 1016.19 1016.73 1017.20 1017.63 1018.03 1018.41 1018.79 1019.17 1019.57 1019.98 1020.41 1020.85
1009.60 1009.10 1008.58 1008.03 1007.44 1006.81 1006.14 1005.48 1004.83 1004.25 1003.76 1003.40 1003.18 1003.10 1003.16 1003.36 1003.67 1004.08 1004.58 1005.16 1005.80 1006.51 1007.28 1008.10 1008.96 1009.85 1010.75 1011.64 1012.50 1013.32 1014.08 1014.77 1015.40 1015.97 1016.49 1016.96 1017.39 1017.81 1018.21 1018.61 1019.02 1019.44 1019.88
1009.44 1008.98 1008.50 1007.99 1007.43 1006.83 1006.19 1005.52 1004.87 1004.26 1003.72 1003.29 1002.99 1002.82 1002.78 1002.87 1003.07 1003.37 1003.76 1004.23 1004.76 1005.36 1006.02 1006.74 1007.51 1008.32 1009.17 1010.03 1010.89 1011.74 1012.55 1013.33 1014.05 1014.71 1015.31 1015.86 1016.35 1016.81 1017.23 1017.64 1018.03 1018.44 1018.86
1009.18 1008.74 1008.29 1007.81 1007.29 1006.71 1006.10 1005.47 1004.83 1004.23 1003.68 1003.23 1002.89 1002.66 1002.55 1002.55 1002.66 1002.86 1003.14 1003.49 1003.91 1004.39 1004.93 1005.53 1006.20 1006.92 1007.70 1008.52 1009.37 1010.23 1011.09 1011.92 1012.72 1013.46 1014.15 1014.76 1015.32 1015.81 1016.25 1016.65 1017.04 1017.42 1017.82
Thickness
5645 5645 5645 5646 5647 5648 5649 5649 5650 5650 5651 5651 5652 5653 5653 5653 5654 5654 5655 5656 5656 5657 5657 5658 5658 5657 5657 5656 5654 5653 5651 5650 5649 5648 5647 5646 5645 5644 5644 5643 5642 5641 5641
5638 5638 5638 5638 5639 5640 5641 5642 5642 5643 5643 5643 5644 5644 5645 5646 5646 5647 5647 5648 5648 5649 5650 5650 5651 5650 5650 5649 5648 5646 5645 5643 5642 5641 5640 5639 5639 5638 5637 5636 5636 5635 5635
5631 5631 5630 5631 5632 5633 5634 5634 5635 5635 5635 5635 5635 5636 5637 5638 5638 5639 5639 5640 5640 5641 5641 5642 5642 5643 5642 5642 5641 5640 5638 5637 5635 5634 5633 5633 5632 5631 5631 5630 5630 5629 5629
5622 5623 5622 5623 5624 5625 5625 5626 5626 5626 5626 5626 5626 5627 5628 5629 5630 5631 5631 5631 5632 5632 5632 5633 5633 5634 5634 5634 5633 5632 5631 5630 5629 5628 5626 5626 5626 5625 5625 5624 5624 5624 5623
5613 5614 5614 5614 5615 5616 5617 5617 5617 5616 5616 5617 5618 5619 5620 5621 5621 5622 5623 5623 5623 5623 5623 5624 5624 5624 5624 5624 5624 5623 5623 5623 5622 5621 5620 5619 5619 5619 5619 5618 5618 5617 5617
5604 5605 5605 5606 5606 5607 5608 5608 5607 5607 5607 5607 5609 5610 5611 5612 5613 5614 5614 5614 5614 5614 5614 5614 5614 5614 5614 5614 5614 5614 5614 5614 5614 5613 5613 5612 5612 5612 5612 5611 5611 5611 5610
5594 5595 5596 5596 5597 5598 5599 5599 5598 5598 5598 5598 5597 5598 5602 5604 5605 5606 5605 5605 5605 5604 5604 5604 5603 5603 5603 5603 5603 5603 5603 5604 5605 5605 5605 5604 5605 5604 5604 5604 5604 5604 5603
5584 5585 5585 5586 5587 5588 5588 5589 5588 5588 5587 5587 5586 5586 5588 5592 5595 5597 5596 5596 5595 5594 5594 5593 5592 5592 5592 5591 5591 5592 5592 5594 5595 5595 5596 5596 5596 5596 5596 5596 5596 5596 5596
5574 5575 5576 5577 5578 5578 5578 5578 5578 5577 5576 5576 5576 5575 5575 5579 5581 5585 5586 5586 5585 5584 5583 5582 5582 5581 5581 5580 5580 5580 5582 5583 5584 5585 5586 5586 5587 5588 5588 5588 5587 5588 5588
5562 5564 5566 5567 5567 5568 5568 5568 5569 5567 5566 5566 5565 5565 5565 5566 5565 5571 5575 5575 5574 5573 5572 5572 5571 5571 5570 5570 5569 5570 5571 5572 5573 5574 5575 5576 5577 5578 5579 5579 5578 5579 5579
5551 5553 5556 5556 5557 5557 5559 5559 5559 5558 5557 5556 5555 5555 5554 5554 5554 5554 5560 5562 5563 5563 5563 5562 5561 5561 5560 5560 5560 5560 5561 5562 5563 5563 5564 5565 5566 5567 5568 5568 5568 5569 5569
5540 5542 5544 5546 5547 5547 5548 5549 5548 5548 5548 5547 5546 5545 5544 5544 5544 5543 5545 5548 5550 5552 5552 5552 5551 5550 5550 5550 5550 5551 5551 5552 5552 5553 5553 5554 5555 5556 5556 5557 5558 5558 5559
5529 5532 5533 5534 5536 5537 5538 5539 5538 5539 5538 5537 5536 5536 5535 5535 5534 5534 5533 5534 5536 5540 5540 5541 5540 5540 5540 5540 5540 5541 5541 5542 5542 5543 5543 5543 5544 5545 5545 5546 5547 5548 5548
5519 5521 5522 5523 5525 5526 5528 5528 5528 5529 5529 5528 5527 5526 5525 5524 5523 5523 5522 5521 5523 5527 5529 5530 5530 5529 5529 5529 5530 5531 5531 5531 5532 5532 5533 5533 5533 5534 5534 5535 5536 5537 5538
5509 5510 5511 5513 5514 5516 5516 5517 5517 5518 5518 5517 5516 5515 5515 5514 5513 5512 5512 5511 5510 5514 5521 5521 5518 5519 5518 5519 5520 5520 5521 5521 5522 5522 5522 5523 5523 5524 5524 5524 5525 5526 5527
5498 5499 5500 5502 5504 5505 5506 5506 5505 5507 5507 5506 5505 5505 5505 5504 5503 5502 5501 5500 5500 5500 5506 5510 5507 5507 5507 5508 5509 5509 5510 5511 5512 5512 5512 5513 5513 5513 5514 5514 5514 5515 5516
5486 5488 5489 5491 5492 5494 5495 5495 5495 5496 5495 5495 5494 5494 5494 5493 5492 5491 5490 5490 5489 5488 5491 5497 5496 5496 5496 5497 5498 5499 5500 5501 5502 5502 5502 5503 5503 5503 5504 5504 5504 5504 5506
5476 5477 5478 5480 5481 5482 5483 5483 5484 5484 5484 5484 5483 5483 5483 5482 5482 5481 5480 5479 5479 5479 5479 5482 5485 5484 5485 5486 5487 5487 5489 5490 5491 5492 5492 5493 5494 5494 5494 5494 5493 5494 5495
5465 5466 5467 5469 5470 5471 5472 5472 5473 5474 5474 5473 5473 5473 5472 5472 5472 5471 5470 5470 5470 5470 5469 5470 5474 5473 5473 5474 5474 5475 5477 5478 5479 5481 5481 5482 5483 5483 5483 5483 5483 5483 5484
5454 5455 5457 5457 5458 5460 5461 5461 5462 5462 5462 5462 5462 5463 5462 5462 5461 5461 5462 5461 5460 5460 5460 5460 5462 5463 5463 5462 5462 5463 5465 5466 5468 5469 5469 5471 5472 5473 5472 5472 5473 5473 5473
5444 5445 5445 5446 5448 5449 5450 5451 5451 5452 5452 5452 5452 5451 5451 5451 5452 5452 5452 5452 5451 5450 5451 5451 5452 5452 5452 5451 5451 5452 5453 5454 5456 5458 5458 5460 5461 5461 5461 5461 5461 5462 5462
5433 5433 5434 5435 5437 5439 5440 5441 5441 5441 5440 5440 5440 5439 5440 5440 5440 5441 5441 5441 5441 5441 5441 5441 5442 5442 5443 5442 5441 5441 5440 5441 5445 5447 5447 5449 5449 5449 5449 5450 5451 5451 5451
5421 5422 5423 5425 5426 5428 5429 5430 5430 5429 5429 5428 5428 5428 5428 5429 5429 5429 5430 5430 5430 5430 5431 5431 5431 5432 5432 5432 5430 5430 5429 5430 5434 5436 5434 5437 5437 5437 5438 5438 5439 5440 5441
5411 5412 5413 5414 5415 5417 5418 5418 5418 5418 5417 5417 5417 5417 5416 5417 5418 5418 5419 5419 5420 5420 5420 5420 5421 5422 5421 5421 5420 5419 5419 5418 5420 5423 5424 5424 5425 5426 5427 5428 5428 5428 5429
5401 5402 5403 5404 5404 5405 5406 5407 5407 5406 5406 5407 5407 5406 5406 5407 5408 5408 5408 5408 5409 5409 5408 5409 5410 5410 5410 5410 5409 5407 5406 5406 5408 5410 5411 5410 5412 5413 5415 5417 5417 5417 5418
5392 5393 5393 5394 5394 5395 5396 5397 5397 5396 5397 5397 5397 5396 5397 5398 5398 5398 5396 5396 5397 5397 5397 5398 5397 5397 5396 5397 5397 5396 5396 5395 5396 5398 5399 5398 5399 5398 5401 5405 5406 5406 5408